Lid_Strength_Index
14 13 13 13 13 13 14 14 16 15 15 13 11 11 10 9 8 8 8 7 7 8 8 8 9 10 10 10 10 11 11 12 12 12 12 13 14 14 15 15 15 16 16 16
15 13 12 14 13 13 13 13 13 13 14 11 10 10 10 9 9 8 8 8 6 7 8 8 9 10 10 10 10 11 11 12 12 12 13 14 14 14 15 16 16 16 17 17
17 13 13 17 14 13 13 12 12 15 12 10 11 9 8 8 7 7 6 6 5 6 7 8 9 9 10 10 10 11 12 12 12 12 13 14 14 14 15 15 15 16 16 15
17 14 21 14 11 11 12 10 9 9 9 9 8 8 7 7 7 7 6 6 5 5 6 6 7 9 9 9 10 11 12 12 12 12 13 14 14 15 15 15 15 15 15 16
17 18 15 13 12 12 12 13 9 10 9 9 8 8 8 6 6 6 5 5 4 5 7 7 7 9 9 10 10 11 12 12 12 13 14 14 14 15 15 15 15 14 14 15
15 18 21 14 10 7 8 15 9 9 10 9 9 13 11 6 5 5 5 5 5 5 6 7 8 8 9 10 11 11 11 12 12 13 14 14 14 15 15 14 14 13 12 14
16 19 16 10 9 8 15 14 9 8 8 9 10 9 7 6 5 5 5 5 5 6 7 7 7 8 10 10 11 10 11 12 12 13 14 14 14 14 14 13 13 13 13 15
15 17 19 8 8 12 10 8 7 7 7 7 7 7 6 6 6 5 5 5 5 6 7 6 7 8 9 10 9 11 11 12 12 12 12 12 13 13 13 13 14 14 14 15
13 14 9 7 8 6 6 8 7 8 7 7 7 7 6 6 6 5 5 5 5 6 6 6 6 8 9 9 9 9 11 12 12 12 12 12 12 13 13 13 14 14 15 15
12 10 9 8 7 6 6 6 6 6 6 6 7 6 6 6 6 5 5 5 4 5 6 7 7 7 7 8 8 9 11 11 11 12 12 11 12 12 13 14 14 14 15 16
12 9 8 7 7 7 6 5 6 5 5 5 6 6 6 6 5 5 4 4 5 5 5 6 6 6 6 7 8 10 10 10 11 11 11 11 12 13 13 13 13 14 15 15
15 8 9 8 7 6 6 6 5 6 6 5 6 5 6 6 5 5 5 5 6 6 6 6 6 6 7 7 8 9 10 10 10 10 11 11 12 13 11 12 11 11 11 13
9 6 6 6 5 6 6 6 6 5 5 6 5 6 6 6 5 5 4 4 6 6 6 6 7 7 7 7 8 9 10 10 10 10 11 12 12 13 14 12 10 10 10 11
8 8 9 7 7 6 5 6 5 5 5 5 5 5 6 6 5 5 5 4 3 4 6 6 7 8 8 8 8 9 9 10 10 11 11 12 13 14 13 14 14 13 10 10
7 7 7 7 6 6 7 6 5 5 5 5 5 6 7 7 7 6 5 5 5 5 6 6 7 8 7 8 9 9 10 10 11 12 13 14 14 14 14 14 13 14 14 12
6 6 7 7 7 7 6 5 6 6 6 7 8 7 7 8 8 8 8 7 7 7 5 7 8 7 8 8 8 9 9 10 11 13 14 15 15 16 16 15 15 15 15 15
8 9 7 7 6 6 6 5 6 7 8 8 9 9 9 9 9 10 9 8 9 9 9 8 7 7 7 8 8 9 9 11 11 13 14 14 15 16 16 16 16 16 16 16
4 5 5 5 6 6 7 7 8 8 8 8 8 9 9 9 10 10 9 8 8 7 7 7 7 7 7 8 8 8 9 10 11 12 13 14 14 14 15 15 16 16 17 17
4 5 5 5 6 7 9 10 10 9 12 10 9 9 9 9 9 9 8 8 8 8 7 6 7 7 7 7 8 8 10 10 11 11 12 13 13 13 14 15 15 16 16 18
4 5 7 9 9 10 10 10 9 9 8 9 8 9 9 9 9 9 9 9 8 7 6 6 7 6 6 7 8 9 9 10 10 11 12 13 13 13 13 14 14 15 16 17
8 9 10 10 10 10 9 9 8 8 9 9 9 9 10 10 10 9 9 9 8 7 7 7 7 7 8 7 7 8 8 9 10 11 12 12 12 12 13 13 13 14 14 16
8 9 10 10 9 10 9 9 8 12 14 14 10 9 10 10 10 9 10 9 8 8 7 8 8 8 8 7 7 8 9 9 10 10 11 11 11 12 12 12 12 13 13 15
9 8 9 9 9 9 8 8 14 14 13 13 9 10 10 10 10 10 11 10 9 8 8 9 9 8 8 7 8 9 9 9 10 10 10 10 10 11 11 12 12 13 14 14
8 9 9 8 8 8 9 10 9 9 12 13 10 11 10 10 12 11 9 13 11 10 8 9 8 8 8 8 9 9 9 9 10 10 10 10 10 10 11 12 13 13 14 14
8 9 8 10 9 10 8 8 8 8 8 8 9 8 9 9 10 11 11 12 15 13 12 9 8 8 8 8 8 9 9 9 10 10 10 10 10 10 11 12 13 13 14 14
7 9 9 7 9 9 8 7 8 8 8 9 9 9 10 11 11 14 15 15 17 15 11 10 8 8 9 9 9 9 9 10 10 10 10 10 11 11 12 12 13 13 14 14
8 9 8 8 6 6 6 7 8 8 8 9 10 10 11 14 17 15 18 19 18 16 13 11 10 11 9 9 10 10 10 10 10 10 11 11 12 12 13 13 13 14 14 15